www.pogodaiklimat.ru

Погода и климат >> Архив погоды >> Бразилия >> Floriano


ПОГОДА в Floriano

  • Прогноз погоды в Floriano
  • Монитор погоды в Floriano
  • Климат города

АРХИВ ПОГОДЫ в Floriano

Время (UTC), дата Ветер
(напр.,м/с)
 
Видим.   Явления Облачность Т
(С)
Тd
(С)
f
(%)
Тe
(С)
Тes
(С)
Комфортность P
(гПа)
Po
(гПа)
Тmin
(С)
Tmax
(С)
R
(мм)
R24
(мм)
S
(см)
01 8.12 штиль 0
{2}
н/о н/о +26.6 +23.3 82 +36 +36 очень
душно
1014.1 999.6
02 8.12 штиль 0
{2}
н/о н/о +26.0 +22.0 79 +34 +34 очень
душно
1014.2 999.7
03 8.12 штиль 0
{1}
н/о н/о +25.2 +21.4 79 +32 +32 очень
душно
1013.9 999.3
05 8.12 штиль 0
{1}
н/о н/о +24.4 +21.0 81 +31 +31 очень
душно
1012.9 998.3
04 8.12 штиль 0
{1}
н/о н/о +24.8 +20.8 78 +31 +31 очень
душно
1013.2 998.6
06 8.12 ЮВ 1
{1}
н/о н/о +24.3 +21.1 82 +31 +31 очень
душно
1012.6 998.0
07 8.12 СВ 1
{2}
н/о н/о +24.1 +21.3 84 +30 +30 очень
душно
1012.8 998.2
08 8.12 штиль 0
{1}
н/о н/о +23.5 +21.0 86 +30 +30 очень
душно
1012.9 998.3
09 8.12 штиль 0
{2}
н/о н/о +23.7 +20.4 82 +29 +29 душно 1014.4 999.7
11 8.12 штиль 0
{1}
н/о н/о +25.3 +20.8 76 +32 +32 очень
душно
1015.4 1000.8
10 8.12 штиль 0
{1}
н/о н/о +24.2 +20.5 80 +30 +30 очень
душно
1015.1 1000.5
12 8.12 С 1
{2}
н/о н/о +26.6 +21.5 74 +34 +34 очень
душно
1015.4 1000.9
13 8.12 С 1
{3}
н/о н/о +28.8 +22.8 70 +38 +38 очень
душно
1014.7 1000.3
14 8.12 СВ 1
{3}
н/о н/о +30.0 +22.4 64 +39 +39 очень
душно
1014.3 999.9
15 8.12 СВ 1
{3}
н/о н/о +31.0 +21.7 58 +39 +39 очень
душно
1013.4 999.1
17 8.12 СВ 1
{3}
н/о н/о +32.4 +20.0 48 +39 +39 очень
душно
1010.8 996.6
16 8.12 СВ 1
{3}
н/о н/о +32.0 +21.9 55 +41 +41 опасность
перегрева
1012.0 997.8
18 8.12 СВ 1
{2}
н/о н/о +32.8 +21.2 51 +41 +41 опасность
перегрева
1009.7 995.5
19 8.12 С 1
{2}
н/о н/о +32.5 +20.3 49 +39 +39 очень
душно
1008.9 994.7
20 8.12 СВ 1
{2}
н/о н/о +32.6 +20.8 50 +40 +40 очень
душно
1008.1 994.0
21 8.12 штиль 0
{2}
н/о н/о +30.8 +21.2 57 +39 +39 очень
душно
1009.1 994.9
23 8.12 штиль 0
{1}
н/о н/о +28.4 +22.6 71 +38 +38 очень
душно
1011.7 997.3
22 8.12 В 1
{1}
н/о н/о +29.1 +21.8 65 +37 +37 очень
душно
1010.1 995.8
00 9.12 штиль 0
{3}
н/о н/о +27.9 +21.5 68 +36 +36 очень
душно
1012.6 998.2
01 9.12 штиль 0
{1}
н/о н/о +27.3 +21.5 71 +35 +35 очень
душно
1012.8 998.3
02 9.12 штиль 0
{1}
н/о н/о +26.3 +22.4 79 +34 +34 очень
душно
1012.5 998.0
03 9.12 штиль 0 н/о н/о +25.7 +22.4 82 +34 +34 очень
душно
1011.7 997.2
05 9.12 штиль 0
{1}
н/о н/о +25.3 +20.8 76 +32 +32 очень
душно
1011.9 997.4
04 9.12 ЮВ 1
{1}
н/о н/о +25.6 +21.3 77 +32 +32 очень
душно
1011.5 997.0
06 9.12 С 2
{4}
н/о н/о +25.2 +21.7 81 +32 +32 очень
душно
1012.5 997.9
07 9.12 С 1
{3}
н/о н/о +24.0 +21.3 85 +30 +30 очень
душно
1012.2 997.6 0.6
08 9.12 С 1
{3}
н/о н/о +22.9 +20.5 86 +30 +30 очень
душно
1012.7 998.0
09 9.12 СЗ 1
{2}
н/о н/о +22.6 +20.1 86 +29 +29 очень
душно
1013.2 998.5
11 9.12 СВ 1
{1}
н/о н/о +24.6 +21.0 80 +31 +31 очень
душно
1015.4 1000.8
10 9.12 штиль 0
{1}
н/о н/о +23.3 +20.0 82 +30 +30 очень
душно
1014.2 999.5
12 9.12 В 1
{2}
н/о н/о +26.1 +21.3 75 +33 +33 очень
душно
1016.0 1001.4
13 9.12 В 1
{2}
н/о н/о +28.2 +21.7 68 +36 +36 очень
душно
1016.0 1001.5
14 9.12 СВ 1
{3}
н/о н/о +28.8 +22.2 68 +38 +38 очень
душно
1015.8 1001.4
15 9.12 СВ 1
{3}
н/о н/о +29.1 +22.2 66 +38 +38 очень
душно
1015.4 1001.0
17 9.12 В 1
{2}
н/о н/о +29.1 +22.0 66 +38 +38 очень
душно
1013.2 998.8
16 9.12 СВ 1
{3}
н/о н/о +29.2 +22.1 66 +38 +38 очень
душно
1014.4 1000.0
18 9.12 Ю 1
{2}
н/о н/о +29.6 +22.0 64 +38 +38 очень
душно
1011.9 997.6
19 9.12 Ю 1
{2}
н/о н/о +29.4 +21.5 63 +37 +37 очень
душно
1011.6 997.3
20 9.12 ЮЗ 2
{3}
н/о н/о +29.9 +21.7 61 +38 +38 очень
душно
1012.0 997.7
21 9.12 Ю 1
{3}
н/о н/о +28.1 +22.2 70 +37 +37 очень
душно
1013.3 998.9
23 9.12 ЮЗ 1
{2}
н/о н/о +26.8 +22.1 75 +35 +35 очень
душно
1014.9 1000.4
22 9.12 Ю 1
{3}
н/о н/о +27.0 +22.0 74 +35 +35 очень
душно
1013.5 999.0
00 10.12 ЮЗ 1
{2}
н/о н/о +26.6 +22.0 76 +34 +34 очень
душно
1015.9 1001.4
01 10.12 СЗ 1
{2}
н/о н/о +26.2 +22.2 79 +34 +34 очень
душно
1017.1 1002.5
02 10.12 СВ 2
{6}
н/о н/о +21.6 +19.3 87 +27 +27 душно 1017.8 1003.0 3
03 10.12 С 1
{4}
н/о н/о +22.1 +20.4 90 +28 +28 душно 1017.7 1002.9 6
05 10.12 ЮЗ 1
{2}
н/о н/о +21.5 +20.0 91 +27 +27 душно 1017.1 1002.3 13
04 10.12 СЗ 1
{3}
н/о н/о +21.4 +19.8 91 +26 +26 душно 1017.6 1002.8 20
06 10.12 ЮВ 2
{3}
н/о н/о +21.7 +20.3 92 +27 +27 душно 1017.3 1002.5 6
07 10.12 штиль 0
{3}
н/о н/о +21.9 +20.4 91 +28 +28 душно 1016.3 1001.5 4
08 10.12 ЮВ 1
{1}
н/о н/о +22.0 +20.5 91 +28 +28 душно 1016.6 1001.8 2
09 10.12 В 1
{2}
н/о н/о +21.8 +20.1 90 +27 +27 душно 1017.4 1002.6 0.4
11 10.12 ЮВ 1
{1}
н/о н/о +23.4 +21.3 88 +31 +31 очень
душно
1018.3 1003.6 1
10 10.12 В 1
{2}
н/о н/о +22.0 +20.3 90 +28 +28 душно 1018.2 1003.4 0.2
12 10.12 ЮВ 1
{3}
н/о н/о +24.1 +21.1 83 +30 +30 очень
душно
1018.3 1003.6
13 10.12 ЮВ 2
{3}
н/о н/о +23.8 +20.7 83 +30 +30 очень
душно
1018.1 1003.4 0.2
14 10.12 ЮЗ 1
{3}
н/о н/о +24.1 +21.2 84 +30 +30 очень
душно
1017.8 1003.1 0.4
15 10.12 ЮВ 1
{2}
н/о н/о +24.9 +21.6 82 +32 +32 очень
душно
1017.2 1002.6 0.2
17 10.12 ЮВ 1
{2}
н/о н/о +25.6 +21.0 76 +32 +32 очень
душно
1015.5 1000.9
16 10.12 В 1
{1}
н/о н/о +25.2 +21.0 78 +32 +32 очень
душно
1016.6 1002.0
18 10.12 штиль 0
{2}
н/о н/о +25.8 +21.6 78 +33 +33 очень
душно
1014.6 1000.0
19 10.12 З 1
{1}
н/о н/о +26.2 +21.7 76 +34 +34 очень
душно
1013.7 999.2
20 10.12 З 1
{1}
н/о н/о +25.8 +21.8 79 +33 +33 очень
душно
1013.1 998.6
21 10.12 штиль 0
{1}
н/о н/о +25.1 +21.9 82 +32 +32 очень
душно
1013.8 999.2
23 10.12 штиль 0
{1}
н/о н/о +24.4 +22.1 87 +32 +32 очень
душно
1014.9 1000.3
22 10.12 З 1
{1}
н/о н/о +24.8 +22.1 85 +32 +32 очень
душно
1014.3 999.7
00 11.12 штиль 0
{1}
н/о н/о +24.3 +22.2 88 +32 +32 очень
душно
1015.9 1001.3
01 11.12 Ю 1
{1}
н/о н/о +24.1 +22.2 89 +31 +31 очень
душно
1016.5 1001.8
02 11.12 ЮЗ 1
{1}
н/о н/о +23.7 +21.9 90 +31 +31 очень
душно
1016.4 1001.7
03 11.12 штиль 0
{1}
н/о н/о +23.8 +21.6 87 +30 +30 очень
душно
1015.8 1001.1
05 11.12 ЮВ 1
{2}
н/о н/о +23.9 +20.4 81 +30 +30 очень
душно
1014.3 999.7
04 11.12 ЮЗ 1
{1}
н/о н/о +23.6 +21.6 89 +30 +30 очень
душно
1015.2 1000.5
06 11.12 Ю 1
{2}
н/о н/о +23.3 +20.1 82 +30 +30 очень
душно
1013.9 999.2
07 11.12 ЮВ 1
{2}
н/о н/о +23.4 +20.0 81 +30 +30 очень
душно
1014.2 999.5
08 11.12 штиль 0
{2}
н/о н/о +22.7 +20.0 85 +29 +29 очень
душно
1014.7 1000.0
09 11.12 Ю 1
{2}
н/о н/о +23.3 +20.1 82 +30 +30 очень
душно
1015.2 1000.5
11 11.12 ЮВ 3
{5}
н/о н/о +26.6 +20.2 68 +33 +33 очень
душно
1015.8 1001.3
10 11.12 ЮВ 1
{2}
н/о н/о +25.5 +20.8 75 +32 +32 очень
душно
1015.6 1001.0
12 11.12 ЮВ 2
{5}
н/о н/о +28.4 +20.9 64 +36 +36 очень
душно
1016.4 1001.9
13 11.12 ЮВ 2
{5}
н/о н/о +29.1 +20.1 58 +35 +35 очень
душно
1016.4 1002.0
14 11.12 В 2
{5}
н/о н/о +30.1 +19.8 54 +36 +36 очень
душно
1015.9 1001.5
15 11.12 ЮВ 2
{4}
н/о н/о +30.9 +19.6 51 +37 +37 очень
душно
1015.3 1001.0
17 11.12 ЮВ 2
{4}
н/о н/о +32.7 +19.8 47 +39 +39 очень
душно
1013.4 999.2
16 11.12 ЮВ 2
{4}
н/о н/о +31.7 +19.1 47 +37 +37 очень
душно
1014.4 1000.1
18 11.12 ЮВ 2
{3}
н/о н/о +32.5 +18.7 44 +37 +37 очень
душно
1012.7 998.5
19 11.12 В 1
{4}
н/о н/о +32.8 +18.6 43 +38 +38 очень
душно
1012.4 998.2
20 11.12 ЮВ 1
{3}
н/о н/о +32.3 +17.7 42 +36 +36 очень
душно
1012.1 997.9
21 11.12 Ю 1
{2}
н/о н/о +30.2 +18.9 51 +36 +36 очень
душно
1012.3 998.0
23 11.12 Ю 1
{1}
н/о н/о +26.8 +20.2 67 +33 +33 очень
душно
1013.0 998.5
22 11.12 Ю 1
{1}
н/о н/о +28.4 +19.1 57 +34 +34 очень
душно
1012.5 998.1
00 12.12 штиль 0
{1}
н/о н/о +25.0 +21.4 80 +32 +32 очень
душно
1013.8 999.2
01 12.12 З 1
{1}
н/о н/о +24.9 +21.0 79 +31 +31 очень
душно
1014.1 999.5
02 12.12 штиль 0
{1}
н/о н/о +24.2 +20.9 82 +30 +30 очень
душно
1014.1 999.5
03 12.12 штиль 0
{1}
н/о н/о +24.0 +21.2 84 +30 +30 очень
душно
1013.8 999.2
05 12.12 штиль 0
{1}
н/о н/о +23.1 +20.6 86 +30 +30 очень
душно
1013.2 998.5
04 12.12 штиль 0
{1}
н/о н/о +23.3 +20.3 83 +31 +31 очень
душно
1013.5 998.8
06 12.12 штиль 0
{1}
н/о н/о +22.4 +20.3 88 +29 +29 очень
душно
1013.1 998.4
07 12.12 штиль 0
{1}
н/о н/о +22.7 +20.6 88 +30 +30 очень
душно
1013.1 998.4
08 12.12 штиль 0
{1}
н/о н/о +22.8 +20.6 87 +30 +30 очень
душно
1013.5 998.8
09 12.12 СВ 1
{2}
н/о н/о +23.9 +20.2 80 +30 +30 очень
душно
1014.4 999.8
11 12.12 В 2
{4}
н/о н/о +27.1 +20.0 65 +33 +33 очень
душно
1015.3 1000.8
10 12.12 В 1
{3}
н/о н/о +26.2 +19.7 67 +32 +32 очень
душно
1014.8 1000.3
12 12.12 ЮВ 3
{5}
н/о н/о +28.2 +19.5 59 +34 +34 очень
душно
1015.5 1001.0
13 12.12 В 2
{5}
н/о н/о +29.0 +19.8 58 +35 +35 очень
душно
1015.3 1000.9
14 12.12 В 2
{4}
н/о н/о +29.9 +19.8 55 +36 +36 очень
душно
1015.0 1000.6
15 12.12 ЮВ 2
{4}
н/о н/о +31.3 +19.4 49 +37 +37 очень
душно
1014.2 999.9
17 12.12 В 2
{4}
н/о н/о +32.7 +18.7 44 +38 +38 очень
душно
1012.5 998.3
16 12.12 ЮВ 2
{4}
н/о н/о +31.6 +19.0 47 +37 +37 очень
душно
1013.4 999.1
18 12.12 ЮВ 2
{3}
н/о н/о +33.2 +18.8 43 +38 +38 очень
душно
1011.5 997.3
19 12.12 ЮВ 1
{4}
н/о н/о +32.0 +18.4 44 +37 +37 очень
душно
1011.4 997.2
20 12.12 Ю 2
{4}
н/о н/о +31.6 +17.5 43 +36 +36 очень
душно
1011.4 997.2
21 12.12 Ю 1
{3}
н/о н/о +30.4 +15.9 42 +33 +33 душно 1011.6 997.3
23 12.12 Ю 1
{1}
н/о н/о +26.6 +18.2 60 +31 +31 душно 1012.8 998.3
22 12.12 Ю 1
{2}
н/о н/о +28.5 +17.1 50 +32 +32 душно 1012.0 997.6
00 13.12 штиль 0
{1}
н/о н/о +25.6 +19.0 67 +31 +31 очень
душно
1013.4 998.9
01 13.12 штиль 0
{1}
н/о н/о +24.2 +20.0 77 +30 +30 очень
душно
1013.4 998.8
02 13.12 штиль 0 н/о н/о +23.5 +19.9 80 +29 +29 душно 1012.9 998.3
03 13.12 З 1
{1}
н/о н/о +23.8 +18.2 71 +28 +28 душно 1012.4 997.8
05 13.12 ЮЗ 1
{1}
н/о н/о +22.8 +19.2 80 +29 +29 очень
душно
1011.9 997.2
04 13.12 штиль 0
{1}
н/о н/о +23.6 +19.0 75 +28 +28 душно 1011.6 997.0
06 13.12 штиль 0
{1}
н/о н/о +22.2 +18.7 81 +28 +28 душно 1012.0 997.3
07 13.12 штиль 0
{1}
н/о н/о +21.7 +19.2 86 +27 +27 душно 1012.3 997.6
08 13.12 штиль 0
{1}
н/о н/о +21.7 +19.5 87 +27 +27 душно 1012.4 997.7
09 13.12 штиль 0
{1}
н/о н/о +22.0 +18.6 81 +27 +27 душно 1013.1 998.4
11 13.12 В 1
{4}
н/о н/о +27.0 +18.9 61 +32 +32 очень
душно
1014.4 999.9
10 13.12 ЮЗ 1
{2}
н/о н/о +25.1 +18.4 66 +30 +30 душно 1013.7 999.1
12 13.12 В 2
{4}
н/о н/о +28.0 +18.0 55 +33 +33 очень
душно
1014.4 1000.0
13 13.12 ЮВ 2
{4}
н/о н/о +29.5 +18.4 51 +34 +34 очень
душно
1014.4 1000.0
14 13.12 ЮВ 2
{4}
н/о н/о +30.6 +17.8 46 +35 +35 очень
душно
1014.0 999.7
15 13.12 ЮВ 2
{4}
н/о н/о +31.2 +18.2 46 +36 +36 очень
душно
1013.3 999.0
17 13.12 ЮВ 1
{4}
н/о н/о +31.8 +17.9 44 +36 +36 очень
душно
1011.9 997.7
16 13.12 ЮВ 1
{4}
н/о н/о +32.8 +19.7 46 +39 +39 очень
душно
1012.6 998.4
18 13.12 В 1
{3}
н/о н/о +32.9 +17.7 40 +37 +37 очень
душно
1011.2 997.0
19 13.12 ЮВ 1
{2}
н/о н/о +32.1 +18.0 43 +36 +36 очень
душно
1010.8 996.6
20 13.12 Ю 1
{2}
н/о н/о +31.5 +18.6 46 +36 +36 очень
душно
1010.7 996.5
21 13.12 штиль 0
{2}
н/о н/о +30.7 +19.0 50 +36 +36 очень
душно
1011.1 996.8
23 13.12 штиль 0
{1}
н/о н/о +27.4 +21.4 70 +35 +35 очень
душно
1012.0 997.6
22 13.12 штиль 0
{1}
н/о н/о +27.9 +21.3 67 +35 +35 очень
душно
1011.4 997.0
00 14.12 штиль 0
{1}
н/о н/о +26.1 +21.6 76 +33 +33 очень
душно
1012.6 998.1
01 14.12 штиль 0 н/о н/о +25.7 +21.3 77 +33 +33 очень
душно
1012.8 998.3
02 14.12 штиль 0
{1}
н/о н/о +24.7 +21.6 83 +32 +32 очень
душно
1012.7 998.1
03 14.12 штиль 0
{1}
н/о н/о +25.5 +20.6 74 +32 +32 очень
душно
1012.7 998.2
05 14.12 штиль 0 н/о н/о +24.3 +18.8 71 +29 +29 душно 1011.8 997.2
04 14.12 штиль 0
{2}
н/о н/о +24.6 +19.6 74 +30 +30 очень
душно
1012.3 997.7
06 14.12 ЮЗ 1
{1}
н/о н/о +23.7 +18.3 72 +28 +28 душно 1011.7 997.1
07 14.12 штиль 0
{1}
н/о н/о +23.7 +18.5 73 +28 +28 душно 1011.9 997.3
08 14.12 штиль 0
{1}
н/о н/о +23.4 +18.5 74 +30 +30 очень
душно
1012.6 998.0
09 14.12 штиль 0
{2}
н/о н/о +22.9 +19.5 81 +29 +29 очень
душно
1014.1 999.4
11 14.12 ЮВ 1
{3}
н/о н/о +27.0 +19.9 65 +33 +33 очень
душно
1014.9 1000.4
10 14.12 Ю 1
{1}
н/о н/о +24.8 +19.9 74 +30 +30 душно 1014.7 1000.1
12 14.12 ЮВ 2
{3}
н/о н/о +28.3 +19.2 58 +34 +34 очень
душно
1015.0 1000.6
13 14.12 ЮВ 1
{3}
н/о н/о +30.2 +20.0 54 +36 +36 очень
душно
1015.0 1000.6
14 14.12 ЮВ 1
{2}
н/о н/о +30.0 +19.5 53 +36 +36 очень
душно
1014.9 1000.5
15 14.12 В 1
{2}
н/о н/о +31.8 +20.7 52 +39 +39 очень
душно
1014.2 999.9
17 14.12 Ю 1
{3}
н/о н/о +32.3 +18.7 45 +37 +37 очень
душно
1012.3 998.1
16 14.12 ЮВ 1
{2}
н/о н/о +31.8 +19.4 48 +38 +38 очень
душно
1013.3 999.0
18 14.12 Ю 1
{3}
н/о н/о +32.4 +18.5 44 +37 +37 очень
душно
1011.6 997.4
19 14.12 Ю 1
{2}
н/о н/о +33.0 +18.9 43 +38 +38 очень
душно
1011.0 996.8
20 14.12 Ю 1
{2}
н/о н/о +32.6 +18.6 44 +38 +38 очень
душно
1011.3 997.1
21 14.12 Ю 1
{2}
н/о н/о +30.4 +19.6 52 +36 +36 очень
душно
1011.8 997.5
23 14.12 штиль 0
{1}
н/о н/о +28.8 +19.8 58 +35 +35 очень
душно
1013.6 999.2
22 14.12 штиль 0
{2}
н/о н/о +29.2 +19.8 57 +35 +35 очень
душно
1012.6 998.2
00 15.12 штиль 0
{1}
н/о н/о +27.2 +21.5 71 +35 +35 очень
душно
1014.4 999.9
01 15.12 штиль 0
{1}
н/о н/о +26.4 +22.6 80 +35 +35 очень
душно
1014.6 1000.1

 

Местоположение метеостанции Floriano (Бразилия): широта -6.77 долгота -43.02 высота над уровнем моря 125 м.

В архиве по умолчанию представлена погода в Floriano за последнюю неделю. Архивные данные за месяц целиком и за предыдущие месяцы, начиная с января 2011 года, Вы можете получить, выбрав интересующий диапазон дат из раскрывающегося списка и нажав кнопку "Ввод!".


*Определитесь, кто Вы:
робот инопланетянин человек

Внимание! Время в таблицах - всемирное. Для получения местного времени необходимо прибавить поправку, которая в Floriano равна -3 ч.

Смотрите также архив погоды в соседних городах и на ближайших метеорологических станциях:

Погода в Floriano (Бразилия) (1 км)
Погода в Oeiras (Бразилия) (99 км)
Погода в Sao Pedro do Piaui (Бразилия) (100 км)
Погода в Valenca do Piaui (Бразилия) (148 км)
Погода в Colinas (Бразилия) (157 км)
Погода в Urucui (Бразилия) (166 км)
Погода в Picos (Бразилия) (173 км)
Погода в Picos (Бразилия) (182 км)
Погода в Teresina (Бразилия) (193 км)
Погода в Teresina (Бразилия) (194 км)

Пояснения к столбцам:

Ветер - указаны скорость ветра в м/с - средняя за 10 мин, порывы в срок и между сроками (в фигурных скобках) и направление, откуда дует ветер: С - северный, СВ - северо-восточный, В - восточный, ЮВ - юго-восточный, Ю - южный, ЮЗ - юго-западный, З - западный, СЗ - северо-западный.
Видимость - горизонтальная дальность видимости в метрах или километрах. При видимости от 1 до 10 км при отсутствии осадков обычно наблюдается дымка, при ухудшении видимости до 1 км и менее - туман. В сухую погоду видимость может ухудшаться дымом, пылью или мглою.
Явления - указаны атмосферные явления, наблюдавшиеся в срок или в последний час перед сроком; фигурными скобками обозначены явления, наблюдавшиеся между сроками (за 1-3 часа до срока); квадратными скобками обозначены град или гололедные отложения с указанием их диаметра в мм.
Облачность - указаны через наклонную черту общая и нижняя облачность в баллах и высота нижней границы облаков в метрах; квадратными скобками обозначены формы облаков: Ci - перистые, Cs - перисто-слоистые, Cc - перисто-кучевые, Ac - высококучевые, As - высокослоистые, Sc - слоисто-кучевые, Ns - слоисто-дождевые, Cu - кучевые, Cb - кучево-дождевые. Подробнее классификацию облаков см. в Атласе облаков (PDF).
T - Температура воздуха - температура, измеренная на высоте 2 м над землей.
Td - Температура точки росы - температура, при понижении до которой содержащийся в воздухе водяной пар достигнет насыщения.
f - Относительная влажность воздуха - влажноcть воздуха, измеренная на высоте 2 м над землей.
Te - Эффективная температура - температура, которую ощущает одетый по сезону человек в тени. Характеристика душности погоды. При расчете учитывается влияние влажности воздуха и скорости ветра на теплоощущения человека.
Tes - Эффективная температура на солнце - температура, которую ощущает человек, с поправкой на солнечный нагрев. Характеристика знойности погоды. Зависит от высоты солнца над горизонтом, облачности и скорости ветра. Ночью, в пасмурную погоду, а также при ветре 12 м/с и более поправка равна нулю.
P - Атмосферное давление - приведенное к уровню моря атмосферное давление.
Po - Атмосферное давление - измеренное на уровне метеостанции атмосферное давление.
Tmin - Минимальная температура - минимум температуры воздуха на высоте 2 м над землей.
Tmax - Максимальная температура - максимум температуры воздуха на высоте 2 м над землей.
R - Количество осадков - Количество выпавших осадков за период времени, мм. При наведении курсора мыши на число - период времени, за который выпало указанное количество осадков.
R24 - Количество осадков - Количество выпавших осадков за 24 часа, мм.
S - Снежный покров - Высота снежного покрова, см. При наведении курсора мыши на число - состояние снежного покрова и степень покрытия местности в баллах.